Wind_Speed
10 11 13 14 15 16 18 18 18 18 17 17 17 16 15 15 13 13 13 13 13 13 12 13 13 13 12 12 12 11 11 10 10 10 10 10 9 9 9 8 8 9
11 11 12 14 15 16 17 18 18 18 17 17 16 15 15 14 13 13 13 12 12 13 13 13 13 13 13 12 12 12 11 11 12 12 12 11 10 10 9 9 10 11
11 12 13 14 16 17 18 19 19 18 17 16 16 15 15 14 13 13 12 12 13 13 13 13 13 13 13 13 13 12 12 13 13 13 12 11 11 11 11 11 12 12
12 12 13 15 16 18 18 19 19 18 17 17 17 16 16 15 14 13 13 13 13 13 14 14 14 14 13 13 13 13 13 13 13 12 12 12 13 13 13 13 14 13
13 13 14 15 16 17 18 18 18 17 17 18 17 17 16 15 14 13 14 14 14 14 14 14 14 14 14 14 14 14 13 12 12 12 13 14 15 15 14 14 14 14
15 15 15 15 16 16 17 18 17 17 17 18 17 16 16 15 14 14 15 15 15 14 14 14 15 15 15 15 14 14 13 12 13 13 14 15 15 14 13 14 15 15
17 17 17 17 17 16 17 18 18 17 18 18 17 17 16 15 15 15 16 16 15 15 14 14 14 15 15 15 15 14 14 14 14 14 15 14 14 13 13 14 14 14
19 19 19 18 18 18 18 18 19 19 19 19 17 17 16 16 16 17 17 17 16 15 15 14 14 15 15 15 16 15 15 15 15 15 14 14 13 13 13 14 14 14
21 20 20 19 19 19 19 20 20 20 20 19 18 18 17 17 18 18 18 17 17 16 15 15 15 15 16 16 16 16 15 15 15 15 14 14 14 14 14 14 14 14
20 20 20 20 20 20 21 21 21 21 20 20 20 19 19 19 20 19 19 18 18 17 16 16 16 16 17 17 16 16 16 16 16 15 15 15 15 15 14 14 14 15
20 20 20 20 21 21 22 22 22 22 21 21 21 21 21 21 21 20 19 18 19 18 17 17 17 17 18 17 17 17 17 17 17 17 17 17 17 16 16 16 16 16
23 23 22 22 22 23 23 23 23 23 22 22 22 22 22 21 21 20 19 19 20 20 19 18 18 19 19 18 18 18 18 18 18 18 18 18 18 18 17 17 17 17
26 26 26 25 25 25 25 24 24 24 24 23 23 23 22 22 21 21 20 21 21 21 20 20 20 20 20 20 20 19 19 19 19 19 19 19 19 18 18 18 18 18
26 26 27 28 27 27 26 25 24 24 24 24 24 24 23 22 22 22 22 22 22 22 22 22 21 21 22 22 21 21 21 21 21 21 21 20 19 19 19 19 19 19
26 26 26 27 27 27 26 26 25 25 25 24 24 24 24 23 23 23 23 23 23 23 23 23 23 23 23 23 23 23 23 23 23 23 23 22 21 21 20 20 20 20
27 26 25 25 26 26 26 26 26 26 25 25 25 25 25 25 25 24 24 24 24 24 24 24 24 24 25 25 25 25 25 25 24 24 24 23 22 21 21 21 21 21
26 27 27 27 27 27 27 26 26 27 27 27 27 27 26 26 26 25 25 24 25 25 25 24 24 25 26 26 26 26 26 25 25 24 24 23 22 22 22 22 23 23
25 26 27 28 29 30 31 30 29 28 28 28 28 28 29 29 28 27 26 26 26 26 26 26 26 27 27 27 27 27 27 26 25 25 24 23 23 25 26 25 26 26
24 24 24 25 26 28 31 34 33 31 29 29 29 29 30 30 30 29 29 29 28 28 28 28 28 29 29 28 28 28 28 28 27 26 26 25 24 26 28 28 28 28
24 24 24 25 25 24 25 29 32 33 32 31 30 29 30 30 30 31 31 31 30 30 30 30 30 31 31 30 30 29 29 29 29 28 27 27 27 27 29 29 29 29
25 24 24 26 26 25 24 25 27 30 33 34 33 32 31 31 32 33 33 33 33 32 32 32 32 33 33 33 32 30 30 30 30 29 28 27 28 30 32 32 32 32
25 25 25 25 26 26 26 26 26 27 29 33 35 34 33 33 35 35 35 35 34 34 34 34 33 34 35 34 33 32 31 31 32 30 28 27 31 34 36 36 36 37
23 24 25 26 25 25 25 26 27 26 27 29 32 33 33 33 34 35 37 37 37 37 37 36 35 36 36 36 35 34 34 34 35 34 31 30 33 36 37 36 35 37
20 22 23 24 25 26 26 26 27 28 29 29 28 28 29 31 31 32 34 35 36 37 38 37 36 37 37 38 38 38 37 37 38 38 35 34 34 37 37 35 33 36
18 20 22 23 23 25 27 28 30 31 30 27 24 23 24 26 28 28 29 30 32 34 35 36 37 37 37 38 38 38 38 38 38 38 38 38 38 38 36 34 35 39
18 19 20 22 23 24 27 29 31 31 27 24 24 25 25 26 27 27 26 27 28 29 31 32 33 35 37 38 38 39 39 40 39 38 38 40 40 38 37 37 39 44
Wind_Direction
198 204 201 196 193 192 193 193 192 194 196 196 197 200 204 205 204 205 211 216 220 222 224 225 228 231 234 236 238 238 237 235 233 233 234 234 234 234 235 233 231 228
198 199 199 196 192 190 190 192 195 198 201 202 203 206 211 213 214 215 220 227 231 233 233 232 233 234 235 236 238 237 234 233 232 232 234 235 233 232 229 226 227 226
202 199 199 197 193 191 192 195 198 202 205 209 211 214 217 220 223 226 230 234 239 241 240 239 237 237 237 237 237 235 232 233 234 234 235 234 231 228 223 220 223 224
207 204 203 203 201 200 201 202 205 208 211 215 218 220 222 224 228 231 235 239 242 244 243 243 241 238 237 237 236 234 232 233 235 236 235 233 230 226 220 218 221 222
212 212 211 210 211 211 212 214 215 216 218 222 224 226 226 228 230 233 236 240 243 244 243 243 241 239 237 235 234 233 232 232 234 234 233 231 230 227 221 219 220 221
214 216 217 217 218 218 219 221 224 225 227 229 230 231 232 233 235 236 238 241 243 242 241 241 240 239 236 233 233 232 231 231 231 232 232 231 231 230 225 222 221 221
215 216 218 220 222 223 223 225 227 229 231 234 235 236 237 238 239 240 241 242 242 240 239 240 240 239 236 232 230 230 228 228 229 230 231 232 232 232 229 226 225 225
221 218 218 220 222 224 226 228 229 231 233 235 237 238 240 241 243 244 244 243 242 240 238 238 239 239 237 234 231 229 227 226 228 229 229 230 232 233 232 230 230 229
227 225 223 223 223 225 228 230 231 232 234 235 236 238 239 240 243 244 244 243 242 240 237 236 237 238 238 239 237 234 232 231 230 231 231 231 233 235 235 234 233 232
228 230 229 228 227 227 230 232 234 234 235 235 236 236 237 238 240 242 243 243 242 240 238 235 235 237 239 241 241 241 240 238 236 235 235 234 235 236 236 236 236 236
229 231 231 231 230 230 231 233 236 237 236 236 236 236 236 235 237 239 240 241 241 240 239 237 236 237 238 239 241 243 243 242 240 238 237 237 237 236 236 235 236 237
231 230 229 229 230 231 232 234 236 238 237 236 237 237 237 237 236 237 237 237 238 239 238 237 237 237 238 238 239 240 242 244 244 244 242 241 240 239 238 237 238 239
230 231 230 230 230 229 231 234 235 238 239 238 238 238 239 239 238 237 236 235 235 235 236 236 236 236 237 237 237 238 240 242 244 246 247 247 246 245 244 243 243 244
231 233 233 233 233 232 232 234 235 237 240 241 241 241 240 240 240 239 237 236 234 234 234 235 235 236 237 238 238 239 240 241 242 244 245 247 248 248 249 250 251 252
235 237 239 239 240 240 239 239 239 239 240 242 244 245 244 242 241 241 240 239 238 236 236 236 236 236 237 238 239 240 241 241 241 243 245 246 246 248 250 251 253 255
235 239 243 244 246 248 248 248 247 246 245 244 245 246 247 246 244 243 243 243 243 242 240 238 236 236 238 238 239 241 242 242 242 244 246 247 249 251 252 254 254 254
243 243 244 245 246 248 250 251 250 250 250 249 248 247 247 247 247 247 246 246 247 246 245 243 240 239 239 239 241 243 244 244 245 245 247 250 253 255 255 256 257 256
254 253 252 252 251 250 249 247 245 245 246 248 249 249 247 247 247 247 248 247 247 248 248 247 245 245 244 243 244 245 247 247 247 248 250 252 253 254 257 260 261 260
256 257 260 261 261 257 252 248 245 243 241 242 245 247 248 248 247 247 247 247 248 248 249 249 249 249 248 247 246 247 247 248 248 248 251 253 252 253 257 261 264 263
256 255 257 260 263 263 258 251 248 245 243 241 241 243 245 247 248 249 249 248 248 248 248 250 251 252 252 252 250 250 250 250 250 249 249 251 253 255 259 264 265 265
256 256 256 258 259 262 261 256 252 249 246 243 242 243 243 243 243 244 247 248 249 249 248 249 250 252 254 255 254 253 253 253 252 250 249 252 256 257 259 261 259 258
255 256 257 258 259 261 262 259 255 254 249 244 242 243 244 244 244 244 244 244 245 246 247 248 249 251 254 256 257 257 256 255 255 253 250 252 257 258 257 257 257 258
251 253 256 258 258 258 259 257 255 255 252 246 244 247 248 247 247 249 249 248 246 244 243 243 246 249 253 255 256 256 254 254 255 255 251 247 250 255 257 258 261 265
249 248 252 255 257 257 257 255 254 254 253 251 252 256 255 250 248 252 258 261 260 257 251 245 243 245 249 252 254 254 254 254 255 256 256 253 252 254 257 260 263 267
253 249 249 251 252 253 254 254 253 252 253 255 258 261 260 253 250 254 260 263 264 266 263 256 250 248 251 254 255 257 257 256 256 257 258 258 257 257 258 260 263 264
260 257 255 253 252 251 252 254 255 255 256 257 255 252 250 249 248 250 254 257 260 265 268 263 256 255 257 259 262 265 265 264 262 260 259 259 261 263 262 259 256 257
Height
5890 5891 5892 5892 5893 5895 5897 5898 5900 5901 5903 5904 5905 5907 5909 5910 5911 5911 5913 5914 5914 5915 5915 5916 5917 5917 5918 5918 5919 5920 5921 5922 5923 5924 5924 5924 5925 5926 5926 5927 5928 5928
5890 5891 5892 5892 5893 5895 5896 5898 5899 5901 5902 5904 5905 5906 5908 5909 5910 5910 5911 5912 5913 5914 5914 5915 5915 5916 5916 5917 5918 5919 5920 5921 5922 5922 5923 5923 5924 5924 5925 5926 5926 5926
5890 5891 5892 5893 5894 5895 5896 5897 5899 5900 5902 5903 5904 5906 5907 5908 5909 5909 5910 5911 5911 5912 5912 5913 5913 5914 5914 5915 5916 5917 5918 5919 5920 5921 5921 5922 5922 5923 5924 5924 5924 5924
5890 5891 5892 5893 5894 5895 5896 5897 5898 5900 5901 5902 5904 5905 5906 5906 5907 5908 5909 5909 5910 5910 5911 5911 5912 5912 5913 5914 5915 5916 5916 5917 5918 5919 5920 5920 5921 5921 5922 5922 5922 5922
5890 5891 5892 5893 5894 5895 5896 5897 5898 5899 5900 5901 5903 5904 5905 5905 5906 5906 5907 5908 5908 5909 5909 5910 5910 5911 5911 5912 5913 5914 5915 5915 5916 5917 5918 5919 5919 5920 5921 5921 5920 5920
5889 5890 5891 5892 5893 5894 5895 5896 5897 5898 5899 5900 5901 5902 5903 5904 5904 5905 5905 5906 5907 5907 5908 5908 5909 5910 5910 5911 5911 5912 5913 5914 5915 5916 5916 5917 5918 5919 5919 5919 5919 5919
5888 5889 5890 5891 5892 5892 5893 5894 5895 5897 5898 5899 5900 5901 5901 5902 5903 5903 5904 5904 5905 5906 5906 5907 5908 5909 5909 5910 5910 5911 5911 5912 5913 5914 5915 5916 5916 5917 5917 5918 5917 5917
5886 5887 5888 5889 5890 5891 5892 5892 5893 5895 5896 5897 5898 5899 5899 5900 5901 5901 5902 5903 5903 5904 5905 5906 5906 5907 5908 5908 5909 5909 5910 5910 5911 5912 5913 5914 5914 5915 5916 5916 5916 5916
5885 5886 5887 5888 5889 5890 5890 5891 5891 5892 5893 5895 5896 5896 5897 5898 5899 5900 5900 5901 5902 5902 5903 5904 5905 5906 5906 5907 5907 5908 5908 5909 5909 5910 5911 5912 5912 5913 5914 5914 5915 5915
5883 5884 5885 5886 5887 5888 5888 5889 5889 5890 5891 5892 5893 5894 5895 5896 5896 5897 5898 5899 5900 5901 5901 5902 5903 5904 5905 5905 5906 5907 5907 5907 5908 5909 5909 5910 5910 5911 5912 5912 5913 5913
5880 5882 5883 5884 5884 5885 5886 5886 5887 5888 5889 5890 5891 5892 5893 5893 5894 5895 5896 5897 5898 5899 5900 5900 5901 5902 5903 5903 5904 5905 5906 5906 5906 5907 5907 5908 5908 5909 5910 5910 5911 5911
5878 5879 5880 5880 5881 5882 5883 5883 5884 5885 5886 5888 5889 5890 5890 5891 5892 5893 5894 5895 5896 5897 5898 5898 5899 5900 5900 5901 5902 5903 5904 5904 5905 5905 5905 5906 5907 5907 5908 5908 5909 5909
5875 5876 5876 5877 5878 5879 5879 5881 5882 5883 5884 5885 5886 5887 5888 5889 5890 5891 5892 5893 5893 5894 5895 5896 5897 5898 5898 5899 5899 5900 5901 5902 5903 5903 5904 5905 5905 5906 5906 5906 5907 5907
5872 5873 5874 5875 5875 5876 5877 5878 5880 5881 5882 5883 5884 5885 5886 5887 5888 5889 5889 5890 5891 5892 5892 5893 5895 5895 5896 5896 5897 5897 5898 5899 5900 5901 5902 5903 5903 5904 5904 5905 5905 5905
5870 5872 5873 5874 5875 5876 5877 5877 5878 5879 5880 5881 5882 5883 5884 5885 5886 5887 5887 5888 5889 5889 5890 5891 5892 5893 5894 5894 5894 5895 5895 5896 5897 5898 5899 5900 5901 5901 5902 5902 5902 5903
5867 5869 5871 5872 5874 5875 5876 5877 5878 5878 5879 5880 5880 5881 5882 5883 5884 5885 5886 5887 5887 5887 5888 5889 5890 5890 5891 5891 5892 5892 5893 5894 5895 5896 5896 5897 5899 5899 5899 5900 5900 5900
5866 5867 5869 5870 5871 5872 5874 5875 5876 5877 5877 5878 5879 5879 5880 5880 5881 5883 5884 5884 5885 5885 5886 5887 5888 5888 5888 5888 5889 5890 5890 5891 5892 5893 5893 5895 5897 5897 5897 5897 5897 5897
5865 5865 5866 5867 5868 5869 5870 5871 5872 5873 5874 5875 5876 5877 5877 5878 5879 5880 5881 5881 5882 5883 5884 5885 5885 5885 5885 5885 5886 5887 5887 5888 5889 5890 5890 5892 5894 5895 5895 5895 5895 5895
5862 5863 5864 5864 5865 5865 5865 5866 5867 5869 5870 5871 5872 5873 5874 5875 5876 5877 5877 5878 5879 5880 5881 5882 5882 5882 5882 5883 5883 5884 5884 5885 5886 5887 5887 5888 5890 5891 5891 5891 5891 5891
5858 5860 5861 5861 5861 5862 5862 5862 5864 5865 5867 5868 5868 5869 5870 5872 5873 5874 5874 5875 5875 5876 5877 5878 5879 5879 5879 5880 5880 5881 5881 5882 5883 5884 5885 5886 5886 5887 5887 5888 5888 5887
5854 5856 5857 5858 5858 5858 5859 5859 5860 5861 5862 5863 5864 5865 5866 5867 5868 5870 5870 5871 5872 5873 5873 5874 5875 5875 5875 5876 5876 5877 5878 5878 5879 5880 5882 5884 5884 5884 5884 5884 5883 5882
5850 5851 5852 5853 5854 5855 5856 5856 5856 5857 5857 5858 5859 5860 5861 5863 5864 5865 5866 5867 5868 5868 5869 5870 5871 5871 5871 5872 5873 5874 5874 5874 5874 5876 5878 5880 5880 5879 5879 5879 5878 5877
5847 5847 5848 5848 5849 5851 5852 5853 5853 5853 5853 5853 5854 5856 5857 5858 5860 5861 5861 5862 5862 5863 5864 5866 5867 5867 5867 5867 5868 5870 5870 5870 5870 5870 5872 5875 5875 5874 5874 5875 5875 5874
5843 5844 5844 5844 5845 5846 5847 5848 5849 5849 5849 5849 5852 5854 5854 5855 5856 5857 5858 5858 5858 5858 5859 5860 5862 5862 5862 5862 5863 5864 5865 5865 5865 5865 5867 5869 5871 5871 5870 5872 5873 5871
5840 5841 5841 5841 5842 5842 5843 5843 5843 5843 5845 5848 5850 5851 5851 5851 5852 5853 5854 5854 5854 5854 5854 5855 5857 5857 5857 5857 5858 5859 5860 5861 5861 5861 5863 5864 5865 5866 5868 5869 5869 5865
5837 5837 5838 5838 5839 5839 5839 5839 5838 5839 5842 5846 5846 5846 5846 5847 5848 5849 5850 5849 5850 5850 5850 5851 5852 5854 5854 5854 5854 5854 5854 5854 5855 5857 5858 5858 5860 5862 5863 5864 5864 5860